Hourly Data Report for April 30, 2006

TORONTO CITY
ONTARIO

43°40'00.000" N
79°24'00.000" W
112.50 m
6158355
71508
XTO

Download Data

Hourly Data (April 2006)
Hourly Data Report for April 30, 2006
TIME
LST
Temp Definition
°C
Dew Point Definition
°C
Rel Hum Definition
%
Precip. Amount Definition
mm

Wind Dir Definition
10's deg

Wind Spd Definition
km/h
Visibility Definition
km
Stn Press Definition
kPa
Hmdx Definition


Wind Chill Definition


Weather Definition


00:00 10.5 -6.7 29   LegendMM LegendMM   101.54     LegendNANA
01:00 10.6 -7.4 27   LegendMM LegendMM   101.53     LegendNANA
02:00 10.4 -6.8 29   LegendMM LegendMM   101.54     LegendNANA
03:00 10.0 -7.2 29   LegendMM LegendMM   101.55     LegendNANA
04:00 9.9 -7.2 29   LegendMM LegendMM   101.54     LegendNANA
05:00 9.9 -6.3 31   LegendMM LegendMM   101.55     LegendNANA
06:00 10.3 -5.2 33   LegendMM LegendMM   101.57     LegendNANA
07:00 11.6 -5.5 30   LegendMM LegendMM   101.61     LegendNANA
08:00 12.0 -4.0 32   LegendMM LegendMM   101.62     LegendNANA
09:00 12.4 -3.5 33   LegendMM LegendMM   101.63     LegendNANA
10:00 12.1 -1.2 40   LegendMM LegendMM   101.63     LegendNANA
11:00 13.8 -2.8 32   LegendMM LegendMM   101.63     LegendNANA
12:00 14.6 -2.7 30   LegendMM LegendMM   101.58     LegendNANA
13:00 16.0 -2.5 28   LegendMM LegendMM   101.52     LegendNANA
14:00 17.0 -3.1 25   LegendMM LegendMM   101.47     LegendNANA
15:00 17.5 -6.6 19   LegendMM LegendMM   101.39     LegendNANA
16:00 17.4 -6.9 18   LegendMM LegendMM   101.32     LegendNANA
17:00 17.4 -7.6 17   LegendMM LegendMM   101.25     LegendNANA
18:00 17.1 -7.3 18   LegendMM LegendMM   101.22     LegendNANA
19:00 16.0 -7.6 19   LegendMM LegendMM   101.21     LegendNANA
20:00 15.4 -6.0 22   LegendMM LegendMM   101.23     LegendNANA
21:00 15.5 -3.7 26   LegendMM LegendMM   101.27     LegendNANA
22:00 14.2 -2.8 31   LegendMM LegendMM   101.29     LegendNANA
23:00 12.8 -1.7 37   LegendMM LegendMM   101.31     LegendNANA

Notes on Data Quality.

Legend

  • E = Estimated
  • M = Missing
  • NA = Not Available*
  • [empty] = Indicates an unobserved value
Date modified: